Tracking 28052 objects as of 24-Sep-2023
HD Live streaming from Space Station
objects crossing your sky now

STARLINK-5600

Track STARLINK-5600 now!
10-day predictions
STARLINK-5600 is classified as:


NORAD ID: 57357
Int'l Code: 2023-099AF
Perigee: 533.5 km
Apogee: 535.3 km
Inclination: 43.0 °
Period: 95.2 minutes
Semi major axis: 6905 km
RCS: Unknown
Launch date: July 16, 2023
Source: United States (US)
Launch site: AIR FORCE EASTERN TEST RANGE (AFETR)
Your satellite tracking list
Your tracking list is empty




NASA's NSSDC Master Catalog

Two Line Element Set (TLE):
1 57357U 23099AF  23266.58334491 -.00939902  00000-0 -56765-1 0  9990
2 57357  42.9976  76.8942 0001292 258.7837 243.1742 15.12919281 11785
Source of the keplerian elements: AFSPC